Location: Bratsk-Energetik
(56.3300°N, 101.7600°E)
Time: 22:19:29
(UTC+08:00)

ISS - Pass Details

Date: 24 May 2017
Orbit: 402 x 409 km, 51.6° (Epoch: 25 May)

Event Time Altitude Azimuth Distance (km) Brightness Sun altitude
Rises 03:21:31 0° 270° (W) 2,331 -0.3 -8.1°
Reaches altitude 10° 03:23:50 10° 256° (WSW) 1,467 -1.4 -7.9°
Maximum altitude 03:26:33 24° 200° (SSW) 894 -2.7 -7.7°
Drops below altitude 10° 03:29:14 10° 145° (SE) 1,460 -1.2 -7.5°
Sets 03:31:33 0° 131° (SE) 2,316 -0.1 -7.3°
